Regional Weather Roundup
Issued by NWS Upton, NY

Home | Current Version | Previous Version | Text Only | Print | Product List | Glossary On
Versions: 1 2 3 4 5 6 7 8 9 10 11 12 13 14 15 16 17 18 19 20 21 22 23 24 25 26 27
000
ASUS41 KOKX 180008
RWROKX

Regional Weather Roundup
National Weather Service New York NY
700 PM EST WED JAN 17 2018

Note: "FAIR" indicates few or no clouds below 12,000 feet with no
significant weather and/or obstructions to visibility.

NYZ071-072-176-178-NJZ106-104-180100-
New York City Metro Area

CITY           SKY/WX    TMP DP  RH WIND       PRES   REMARKS
Central Park   FAIR      27  16  63 NW12G18   30.19F WCI  17
Bronx Bot Gard   N/A     28  18  64 NW9       30.18S WCI  20
Bronx Lehman C   N/A     28  19  69 NW5         N/A  WCI  23
LaGuardia Arpt MOCLDY    28  18  66 NW15      30.17F WCI  16
Queens College   N/A     28  19  69 NW10        N/A  WCI  19
Kennedy Intl   CLOUDY    29  21  72 NW15      30.18F WCI  18
Breezy Point     N/A    N/A N/A N/A NW14        N/A
Brooklyn Coll    N/A     30  18  59 NW12        N/A  WCI  21
Staten Island    N/A     27  18  69 NW9         N/A  WCI  17
Newark/Liberty MOCLDY    27  16  63 NW12G21   30.19F WCI  17
Teterboro      FAIR      26  16  65 N9G21     30.18F WCI  17
$$

NYZ177-179-078>081-180100-
Long Island New York

CITY           SKY/WX    TMP DP  RH WIND       PRES   REMARKS
Jones Beach      N/A    N/A N/A N/A NW15        N/A
Wantagh          N/A     30  25  80 NW10        N/A  WCI  21
Matinecock Pt    N/A    N/A N/A N/A NW17        N/A
Farmingdale    CLOUDY    29  24  82 NW15      30.15F WCI  18
MacArthur/ISP  CLOUDY    32  28  85 NW13      30.13F WCI  22
Shirley        FAIR      32  30  92 NW10      30.13S WCI  24
Mt Sinai Harb    N/A    N/A N/A N/A NW8         N/A
Westhampton    CLOUDY    33  30  88 NW9       30.13F WCI  25
East Hampton   CLOUDY    32  32  99 W3        30.11S
Southold         N/A     34  32  93 NW5         N/A  WCI  30
Montauk          N/A     37  35  92 N5        30.10F WCI  33
$$

NYZ052-065-067-180100-
Hudson Valley

CITY           SKY/WX    TMP DP  RH WIND       PRES   REMARKS
White Plains   MOCLDY    26  21  81 NW13      30.13F WCI  15
Larchmont Harb   N/A    N/A N/A N/A NW10        N/A
Croton On Huds   N/A    N/A N/A N/A NW9         N/A
Somers           N/A     25  21  86 NW3         N/A
Brewster         N/A     25  21  86 N8          N/A  WCI  16
Newburgh       CLOUDY    23  19  86 W9        30.18S WCI  13
Montgomery     CLOUDY    22  12  65 NW14      30.17R WCI   9
Otisville        N/A     19  10  68 NW3         N/A
Warwick          N/A     19  12  73 W9          N/A  WCI   9
Suffern          N/A     23  16  74 NW8         N/A  WCI  14
Poughkeepsie   CLOUDY    25  19  78 N7        30.19R WCI  17
Albany         FLURRIES  19   9  65 W13G20    30.23R WCI   6
$$

NJZ001-105-106-008-010-013-015-019>022-104-180100-
New Jersey

CITY           SKY/WX    TMP DP  RH WIND       PRES   REMARKS
Newark/Liberty MOCLDY    27  16  63 NW12G21   30.19F WCI  17
Teterboro      FAIR      26  16  65 N9G21     30.18F WCI  17
Caldwell       FAIR      23  15  71 NW5       30.20S WCI  17
Somerville     FAIR      23  13  65 NW12      30.19F WCI  12
Linden         FAIR      26  16  65 NW8       30.20F WCI  18
Perth Amboy      N/A    N/A N/A N/A NW14        N/A
Sussex         FAIR      20   9  62 VRB5      30.20S WCI  13
Andover        NOT AVBL
Trenton        FAIR      24  11  57 NW9       30.21S WCI  14
Millville      MOCLDY    24  14  65 NW10      30.24R WCI  14
Atlantic City  MOCLDY    26  16  65 NW12      30.21S WCI  16
Wrightstown    CLEAR     25  16  68 NW13      30.18F WCI  13
Toms River     FAIR      26  21  81 NW10      30.20S WCI  16
Belmar         FAIR      26  20  77 NW8       30.18F WCI  18
$$

PAZ047>061-062-071-180100-
Eastern Pennsylvania

CITY           SKY/WX    TMP DP  RH WIND       PRES   REMARKS
Philadelphia   CLOUDY    25  10  53 NW12G22   30.26R WCI  14
Allentown      FAIR      20   6  55 NW8       30.24S WCI  10
Scranton       FAIR      14   5  67 N3        30.21S
$$

CTZ002-004>006-009-010-012-RIZ004-006-007-MAZ004-011-015-180100-
Southern New England

 In CT

CITY           SKY/WX    TMP DP  RH WIND       PRES   REMARKS
Bradley Intl   CLOUDY    28  22  78 NW12      30.14R WCI  18
Hartford       CLOUDY    31  26  82 W9        30.14R WCI  23
Danbury        CLOUDY    27  21  78 NW9       30.15F WCI  18
Wtrbury/Oxford CLOUDY    25  23  92 NW7       30.12S WCI  17
Norwalk Harbor   N/A    N/A N/A N/A NW12        N/A
Bridgeport     FAIR      31  25  78 NW13      30.14S WCI  21
Meriden        CLOUDY    29  23  78 NW14G20   30.13R WCI  18
New Haven      CLOUDY    33  28  81 NW9       30.13R WCI  25
Chester          N/A     32  30  93 NW8       30.10S WCI  25
Groton         CLOUDY    34  32  92 W5        30.10S WCI  30
Willimantic    CLOUDY    34  31  88 CALM      30.10F

 In RI

CITY           SKY/WX    TMP DP  RH WIND       PRES   REMARKS
Providence     LGT SNOW  34  33  96 N3        30.10S FOG
Block Island   MIX PCPN  34  34 100 N3        30.10F FOG
Westerly       CLOUDY    35  35 100 CALM      30.10F FOG

In MA

CITY           SKY/WX    TMP DP  RH WIND       PRES   REMARKS
Boston         LGT SNOW  32  31  96 NW8       30.10S FOG     WCI  25
Worcester      CLOUDY    29  26  89 NW6       30.05S WCI  23
Westfield      CLOUDY    25  20  81 NW12      30.13R HAZE    WCI  14
Provincetown   CLOUDY    37  35  92 N7          N/A  FOG     WCI  32
Nantucket      FOG       36  36 100 NW10      30.08R VSB 1/2 WCI  28
$$

ANZ330-335-338-340-345-350-353-355-180100-
Coastal Marine Observations


STATION/POSITION TIME  SKY/WX   TEMP    WIND        PRES    VSBY  WAVE
                                AIR SEA DIR/SP/G                  HT/PER
                 (UTC)          (F)     (DEG/KT/KT) (MB)    (MI)  (FT/S)
NY Harb Entrance 2250            32 42  310/ 19/ 21 1021.1          4/ 8
20 S Fire Island 2250            35 42  330/ 16/ 19 1020.7          5/11
15 E Barnegat Li 2330               43                N/A           5/11
Hudson Canyon    2250            40 50  320/ 16/ 19 1019.5          6/11
Kings Point      2330            28 33  360/ 13/ 15 1022.8
Execution Rocks  NOT AVBL
Western LI Sound NOT AVBL
Central LI Sound NOT AVBL
Robbins Reef     2330            27     310/ 15/ 19 1022.8
$$


>>>>>>>>>>>>>>>>>>>>>>>>>>>> KEY <<<<<<<<<<<<<<<<<<<<<<<<<<<
>                                                          <
>     SKY/WX - Sky Condition/Present Weather               <
>     TMP    - Temperature in Fahrenheit                   <
>     DP     - Dew Point in Fahrenheit                     <
>     RH     - Relative Humidity in Percent                <
>     WIND   - Direction (from) and Speed in MPH           <
>     PRES   - Mean Sea Level Pressure (inches of Hg)      <
>     WCI    - Wind Chill Index                            <
>     VSB    - Visibility in Miles                         <
>     HX     - Heat Index                                  <
>     TC     - Temperature in Celsius                      <
>     VRB    - Varibale Wind Direction                     <
>                                                          <
>>>>>>>>>>>>>>>>>>>>>>>>>>>> KEY <<<<<<<<<<<<<<<<<<<<<<<<<<<




USA.gov is the U.S. government's official web portal to all federal, state and local government web resources and services.